GFSSE_2pvu_pres_069.txt.gz
Presure
129 122 103 127 120 95 124 111 114 116 111 115 116 111 108 113 112 118 114 106 108 134 123 140 138 110 136 120 106 111 122 117 105 105 127 115 132 141 115 112 111 112 106
134 123 116 123 142 125 126 127 127 125 124 125 104 83 119 108 121 122 101 114 127 101 92 102 127 129 150 116 104 101 109 108 126 101 113 128 105 108 118 111 113 118 125
127 120 126 126 131 138 126 112 127 131 124 110 122 120 123 134 134 108 124 112 118 113 102 131 114 99 131 121 97 110 120 125 101 108 109 130 126 123 117 136 120 128 115
119 119 131 115 121 112 117 102 135 142 130 135 146 103 134 122 141 138 133 126 115 107 119 137 136 125 116 119 108 119 122 98 136 124 121 131 109 125 114 115 178 120 160
148 116 73 125 133 114 117 127 123 125 126 131 124 140 133 106 102 112 108 115 117 132 131 133 109 126 138 149 103 130 124 111 113 126 123 139 126 140 121 125 125 128 216
178 115 108 98 117 121 117 120 120 139 125 130 120 134 117 140 131 100 137 117 115 122 115 116 116 124 126 119 136 126 120 125 141 113 114 115 120 124 190 205 203 214 224
140 113 135 133 158 138 132 139 140 115 113 124 136 141 126 124 144 130 106 102 135 149 118 103 134 130 123 112 111 125 125 122 119 132 133 124 125 114 118 214 178 214 207
151 138 122 131 114 115 142 147 127 134 134 116 131 125 137 88 133 130 114 138 122 118 101 144 122 116 118 147 119 113 117 128 141 151 165 134 126 154 213 214 216 206 209
79 143 95 144 157 140 113 136 121 115 109 144 130 136 125 101 114 116 134 126 146 97 147 129 107 133 127 128 114 115 137 180 134 130 130 188 206 196 211 208 216 202 205
149 160 143 149 126 109 150 120 112 118 132 111 124 118 122 138 113 105 122 145 134 136 121 146 123 154 117 122 125 124 178 163 199 132 131 210 199 222 212 218 210 201 199
132 137 110 142 141 148 130 101 138 150 129 109 123 120 118 143 132 126 146 144 122 132 150 123 116 121 123 188 129 141 169 209 135 215 209 191 205 206 206 199 194 191 197
127 153 124 131 151 129 162 129 145 112 119 144 142 124 128 126 125 142 114 133 121 122 117 119 127 131 126 204 145 210 207 211 211 193 190 212 213 199 199 192 193 220 230
126 135 133 136 124 140 154 120 215 111 113 155 133 147 126 122 139 124 111 127 133 127 154 121 136 128 133 135 197 210 209 213 209 198 218 208 196 194 190 202 224 219 207
219 122 147 151 151 122 150 185 129 120 121 123 140 104 117 119 136 137 141 128 126 121 121 132 146 200 204 218 204 165 227 195 204 215 200 194 190 198 206 220 217 222 218
129 186 141 133 125 159 129 128 120 113 130 145 133 119 120 128 124 128 116 118 126 126 131 127 212 171 207 176 224 208 193 205 209 198 189 197 216 220 218 211 199 205 197
123 133 125 131 134 160 123 123 122 144 130 127 122 129 127 135 112 122 125 224 204 129 125 186 199 211 202 224 202 203 209 205 195 192 196 223 215 214 192 202 206 206 206
154 139 143 120 163 118 120 121 172 215 128 132 126 117 114 127 132 123 119 202 123 189 187 191 218 199 215 194 207 198 197 191 192 194 213 219 206 197 197 196 208 209 204
127 129 131 131 126 122 123 122 128 132 141 123 119 124 123 131 212 207 202 170 187 187 187 189 196 204 199 205 203 199 192 193 195 221 213 198 203 205 214 211 209 204 203
182 137 117 123 172 122 129 123 127 129 125 127 129 128 120 134 157 126 181 187 183 204 202 208 205 197 197 205 198 192 194 208 220 203 208 203 214 215 207 209 215 216 210
127 127 117 196 216 214 125 130 135 131 120 173 163 137 143 155 204 179 182 180 204 211 197 206 209 205 199 193 191 205 221 196 207 210 209 209 208 212 215 215 199 200 205
116 115 222 121 126 126 133 132 127 125 125 134 135 201 196 195 193 181 217 205 202 205 208 196 194 191 191 203 220 195 202 196 208 207 206 215 222 212 197 203 206 215 198
125 123 126 125 125 133 140 150 152 154 133 131 149 209 199 208 209 206 215 202 197 193 188 197 199 209 209 197 209 201 201 209 216 216 204 194 197 206 212 212 202 208 207
130 131 121 156 130 129 218 162 178 163 202 201 197 193 211 208 198 187 186 191 198 197 200 214 210 204 204 196 200 204 211 207 199 199 201 204 208 207 205 206 203 204 217
167 125 132 134 167 200 189 202 162 200 200 202 181 194 211 208 199 198 196 191 197 207 207 201 208 197 196 199 204 208 197 198 200 200 195 200 201 206 203 193 203 230 234
138 203 131 200 202 133 126 195 199 187 199 202 207 212 210 191 193 203 204 199 210 204 204 207 195 196 196 203 195 189 193 200 200 194 204 208 206 200 196 221 235 231 233
202 201 202 150 155 200 195 198 197 192 190 210 206 196 209 209 206 203 209 207 203 208 199 196 195 195 201 194 189 192 197 192 203 202 203 208 196 201 242 236 231 233 240

GFSSE_2pvu_pres_072.txt.gz
Presure
127 122 121 126 132 127 106 117 126 120 117 118 88 111 111 100 110 111 104 103 110 115 111 104 98 120 100 102 102 106 105 123 129 124 123 108 120 135 109 101 113 110 121
141 138 133 112 141 127 134 132 122 127 125 113 124 129 128 127 131 129 110 101 103 98 102 112 125 120 115 104 122 134 137 103 137 129 135 97 113 112 103 143 148 122 103
100 126 97 103 122 134 124 131 112 120 131 114 133 126 121 138 124 126 90 133 145 111 133 132 123 99 118 122 134 110 137 99 117 114 104 106 100 111 107 112 122 127 121
135 125 148 118 138 126 108 127 123 135 133 131 107 130 143 142 133 120 146 148 123 140 114 101 98 124 108 130 136 130 113 104 118 108 117 137 117 118 112 130 113 115 115
157 124 136 141 116 83 115 78 97 126 128 121 128 126 128 113 126 110 123 113 123 123 113 124 115 109 113 130 113 103 121 129 132 122 116 109 113 122 135 118 118 135 147
159 131 135 134 101 82 125 124 113 131 134 131 147 142 137 125 136 124 133 135 117 137 122 128 140 109 145 108 127 103 121 134 123 109 138 122 116 117 116 114 139 125 233
141 129 119 97 116 140 132 98 128 119 129 117 128 141 134 111 117 105 132 90 132 123 138 106 140 121 119 117 103 104 124 116 103 116 119 117 113 118 120 121 158 126 221
152 124 128 143 128 130 99 146 133 135 130 117 123 135 142 132 134 126 102 111 140 111 114 108 135 127 114 128 103 139 116 122 118 125 127 126 121 123 132 170 227 219 126
105 145 157 144 129 139 115 129 128 127 124 94 137 123 137 117 132 144 146 110 109 131 105 110 132 136 143 127 138 123 136 117 133 116 118 119 143 128 197 168 209 150 225
169 127 85 126 116 125 141 166 112 133 143 124 134 123 139 116 133 120 146 110 113 111 156 144 123 117 124 123 128 118 120 119 118 120 135 128 199 218 186 226 206 227 212
110 130 134 131 126 188 157 163 139 141 137 150 159 143 128 155 121 111 111 114 107 119 116 128 119 116 127 133 119 120 138 112 127 134 216 133 216 181 208 197 220 210 202
131 131 125 133 187 139 148 200 161 137 134 136 123 120 120 122 112 126 113 120 138 110 124 112 143 114 128 121 119 126 124 124 133 185 178 199 224 211 214 217 206 201 197
149 126 132 139 175 210 136 140 125 136 158 120 125 129 97 128 105 136 126 140 114 120 137 141 128 134 127 121 123 208 201 197 126 197 203 215 214 216 208 202 199 198 215
129 128 150 130 140 140 132 127 132 123 138 124 148 129 122 116 123 117 135 121 129 124 125 118 126 121 121 128 198 136 124 136 217 218 225 195 210 203 203 197 200 204 226
204 174 244 226 154 172 119 174 187 129 159 123 125 125 118 121 121 116 125 128 121 115 125 124 134 119 196 178 134 161 205 216 200 209 203 207 205 198 195 200 205 220 208
148 136 124 147 163 133 123 162 130 138 125 140 124 112 114 122 121 129 123 121 126 130 130 131 133 128 185 157 200 214 198 207 215 201 212 203 196 197 206 222 223 199 215
133 207 199 134 139 132 135 118 129 125 195 119 113 117 124 122 195 139 125 126 130 122 135 127 119 193 215 200 188 209 206 214 210 204 197 195 196 211 225 199 217 212 212
216 206 187 200 131 127 150 142 123 127 139 125 124 123 124 203 130 125 131 120 133 179 134 134 197 205 157 192 212 211 212 198 194 198 201 217 217 201 199 212 216 216 218
233 213 139 145 195 169 165 116 125 132 129 122 114 120 127 131 126 134 131 172 139 130 129 193 166 189 184 206 204 199 195 199 200 206 215 199 202 207 205 212 216 201 201
222 154 127 132 225 156 182 127 119 143 143 125 145 128 144 170 131 126 139 131 132 143 190 201 174 186 212 201 200 202 203 204 218 203 208 194 193 213 212 199 202 205 206
135 131 212 215 213 225 126 129 146 142 136 123 125 131 138 126 141 210 131 197 190 189 204 205 215 200 197 201 199 205 220 212 204 198 194 206 210 200 192 201 201 202 212
140 129 203 151 184 123 120 130 136 193 130 130 133 133 200 199 187 199 202 207 198 199 208 222 204 203 200 204 206 207 208 205 191 191 205 207 199 195 201 202 198 209 211
203 233 221 210 134 127 119 123 128 171 133 133 165 162 205 201 200 197 202 196 206 214 197 192 195 203 207 202 217 206 201 194 199 207 204 195 193 197 196 204 210 205 206
208 146 212 119 124 207 127 116 124 189 146 128 199 201 186 192 201 197 183 213 213 202 207 213 206 204 219 209 204 194 192 198 206 201 196 191 190 193 208 209 201 208 203
166 216 133 138 125 131 198 217 202 189 140 193 200 204 213 205 199 214 216 204 200 204 201 207 210 213 209 207 197 197 197 201 191 195 189 190 197 210 204 210 208 207 202
210 207 205 192 156 205 207 205 200 198 198 197 199 194 214 195 211 195 204 209 209 217 211 207 207 212 198 198 194 202 195 191 195 188 197 207 200 209 207 205 220 229 237

GFSSE_2pvu_pres_075.txt.gz
Presure
121 108 112 86 130 130 131 141 122 125 132 118 107 110 100 97 97 108 105 95 104 108 95 101 106 109 109 102 108 114 112 109 101 106 85 112 112 115 131 109 126 109 112
127 118 131 139 115 135 138 130 132 130 123 111 97 112 127 84 118 117 130 96 122 126 110 97 116 100 115 108 104 125 107 99 125 106 114 102 84 105 107 128 118 110 132
201 121 128 145 149 114 138 135 115 114 138 126 132 131 118 127 140 141 130 133 130 106 98 101 111 141 145 128 134 97 116 122 117 121 117 115 111 115 117 124 122 114 128
126 129 127 139 158 125 145 124 125 119 120 131 124 125 128 130 141 85 133 145 131 123 136 121 135 139 121 115 99 103 123 109 109 96 110 115 103 112 125 118 126 111 146
127 119 109 122 142 114 118 120 121 120 122 119 115 128 138 92 124 132 129 111 127 116 134 123 130 103 114 138 105 125 124 105 140 121 118 105 105 145 103 116 124 118 113
191 122 141 141 123 112 156 102 132 110 86 84 116 130 130 133 144 137 114 138 139 140 119 130 130 109 144 112 121 108 132 117 123 117 147 100 106 117 117 117 109 114 119
259 299 129 102 126 126 113 121 112 146 120 126 85 139 127 125 123 110 141 135 124 130 129 87 110 111 107 128 123 110 123 128 139 135 138 110 113 124 118 116 122 121 132
170 264 266 207 236 124 139 113 118 131 126 136 151 142 142 120 128 116 128 124 118 139 121 150 119 112 128 112 103 108 112 139 131 117 139 121 128 124 126 121 157 132 120
194 139 218 178 128 132 140 125 135 114 130 110 114 121 131 139 121 135 111 128 98 98 140 128 116 115 140 127 140 121 157 121 118 120 123 121 138 126 122 187 118 127 134
162 104 183 163 186 139 149 126 134 122 147 138 129 155 140 139 154 121 131 122 120 157 111 121 153 113 101 109 150 134 118 129 119 115 115 123 121 117 123 126 131 163 118
192 171 120 171 128 124 78 90 157 132 134 132 130 117 140 150 140 137 148 136 137 146 113 147 126 119 126 131 135 118 117 117 115 120 133 117 125 190 189 116 216 231 222
102 191 119 156 138 124 163 136 136 124 135 150 145 144 140 143 161 147 118 145 123 135 122 114 122 122 154 134 120 124 131 126 131 116 125 139 132 159 207 228 219 206 216
127 186 176 133 179 199 129 121 131 123 145 136 119 151 142 127 137 134 125 125 114 122 118 122 127 134 163 117 127 122 126 128 132 129 137 128 205 220 212 212 219 209 209
213 136 194 115 125 134 188 127 127 184 189 194 145 139 158 163 157 121 144 148 106 112 122 129 128 118 120 184 119 122 132 131 123 133 190 209 197 185 222 206 206 202 204
187 190 122 124 187 185 123 128 131 203 136 140 212 170 121 129 170 116 131 121 121 110 129 124 121 108 126 123 125 128 128 139 121 166 140 186 212 218 208 196 203 210 223
148 162 126 165 218 120 131 190 133 124 179 124 130 123 126 150 127 130 115 126 116 115 123 125 142 123 128 129 132 141 143 139 149 199 191 184 213 207 196 203 215 218 201
123 209 206 208 162 199 204 192 130 121 195 118 133 126 128 133 135 113 125 116 111 121 173 133 119 133 128 132 190 136 135 176 206 195 183 217 201 205 207 220 210 207 206
208 218 208 213 166 215 131 143 175 200 126 129 148 130 120 147 124 137 109 118 125 111 126 133 140 122 147 123 140 157 203 189 190 201 216 205 199 221 209 209 210 202 196
225 216 203 150 201 164 179 125 198 157 131 126 137 140 127 120 114 135 126 122 126 132 171 186 198 153 138 208 200 193 195 206 223 209 209 210 207 214 214 208 201 200 209
143 134 135 214 148 136 204 207 142 156 135 133 196 127 127 126 142 141 132 134 128 125 132 125 144 205 200 193 194 197 210 208 198 200 209 202 218 203 205 199 198 208 206
203 191 130 137 139 144 196 136 212 203 198 135 123 121 122 134 171 126 131 122 130 131 140 195 190 196 215 193 204 208 213 211 219 211 207 219 211 198 197 199 211 201 205
191 212 182 207 213 195 151 134 185 199 193 188 183 120 125 166 122 143 134 119 125 156 201 202 208 189 192 208 214 207 208 207 209 203 207 207 202 195 197 211 192 198 195
199 186 208 163 211 171 131 136 159 124 189 186 144 123 122 125 131 125 127 179 188 199 200 184 192 206 218 214 210 215 203 212 206 220 205 200 195 200 204 196 195 195 197
218 147 212 143 181 201 188 192 120 199 134 121 127 187 176 142 145 180 194 194 194 205 196 194 211 214 206 210 236 208 205 210 219 201 203 203 205 203 191 193 197 196 201
242 127 242 208 214 213 133 124 123 204 133 205 202 146 208 213 208 205 214 209 192 194 221 210 208 202 209 205 210 203 213 206 200 197 200 203 200 197 195 201 196 204 200
223 219 223 218 239 219 233 212 218 169 217 173 196 212 201 194 196 198 211 222 211 216 213 211 213 203 206 207 205 212 210 202 201 203 203 195 191 198 200 200 217 205 216

GFSSE_2pvu_pres_081.txt.gz
Presure
78 74 84 251 136 214 117 106 117 134 141 116 122 127 133 121 135 125 132 131 109 101 114 104 108 97 99 94 107 124 115 94 110 120 102 126 106 146 114 120 124 110 94
142 242 246 279 89 110 133 114 122 117 127 137 124 124 131 123 130 140 122 115 92 111 122 96 93 126 101 124 107 112 121 121 123 112 123 112 135 134 107 125 112 103 107
223 162 89 121 162 100 258 168 195 122 135 119 123 130 123 125 135 131 120 130 128 102 92 128 99 111 120 122 98 129 135 117 124 118 109 127 122 118 135 112 112 109 105
213 133 93 122 184 145 186 173 118 194 141 130 106 123 123 119 122 121 124 134 104 134 128 119 124 130 100 125 128 130 123 122 138 101 112 131 126 115 110 118 115 121 116
312 128 111 127 132 189 126 213 122 186 135 125 153 132 128 136 128 129 150 137 138 128 128 146 143 113 125 138 122 110 134 127 138 117 116 116 142 129 126 130 130 121 126
221 171 211 171 121 193 189 135 136 134 115 125 127 238 141 130 155 137 140 144 147 126 127 133 132 135 148 142 147 139 127 147 116 126 118 127 121 116 121 119 139 138 114
188 190 100 159 106 136 153 186 111 279 142 268 132 122 129 138 136 113 128 149 120 140 146 136 127 132 140 140 123 116 131 119 130 133 116 116 132 116 115 102 113 125 109
158 192 159 171 147 101 156 155 186 115 118 181 195 246 152 202 120 84 116 124 117 138 129 121 142 135 139 125 117 150 136 120 131 115 134 120 120 119 127 139 116 118 119
175 164 165 180 159 179 125 160 151 194 190 123 187 124 118 105 133 127 128 120 139 144 140 142 148 144 132 145 123 125 147 118 146 120 134 128 125 152 114 124 123 110 115
210 154 142 159 170 174 165 169 178 181 132 162 130 130 126 129 118 124 139 134 139 119 120 121 148 131 136 135 139 135 129 124 150 130 139 118 115 118 125 124 125 190 120
202 161 246 147 152 166 173 162 164 131 204 212 189 203 170 219 141 126 119 135 94 114 121 135 130 123 141 148 142 127 133 135 108 137 141 117 125 124 113 118 121 137 129
162 174 243 168 156 132 124 80 163 130 203 194 168 165 225 136 164 139 139 140 153 149 146 138 149 148 144 124 128 153 132 119 147 116 114 176 122 118 180 125 116 136 119
183 227 161 176 167 164 175 167 143 187 183 206 190 185 185 196 102 157 202 135 101 122 146 159 150 140 140 136 149 158 151 161 138 114 122 120 118 107 113 120 125 126 118
172 182 184 172 170 153 164 155 181 125 130 123 135 201 206 188 155 135 122 123 126 132 134 133 140 179 122 210 128 231 119 148 126 143 123 112 112 122 121 124 117 169 137
170 191 158 126 153 188 160 174 160 195 169 207 142 184 188 190 222 216 151 177 153 207 174 138 173 132 125 119 125 163 147 125 131 135 158 112 122 115 117 133 118 158 154
183 183 121 167 163 127 160 162 125 144 172 168 176 202 159 190 189 126 160 131 125 130 189 164 161 127 126 127 191 133 136 161 119 112 128 126 115 121 130 124 129 193 209
200 188 181 110 156 191 170 129 126 181 179 193 191 134 126 128 131 190 132 127 185 130 125 126 113 126 198 134 130 128 192 121 132 135 169 134 115 127 126 135 186 204 201
186 179 164 185 167 189 188 180 144 184 146 160 130 184 211 188 182 127 163 128 190 125 128 142 124 131 112 123 145 135 130 181 129 118 168 137 127 128 192 203 203 194 203
187 203 172 183 191 154 174 143 155 135 126 192 159 199 162 191 119 128 189 175 132 131 130 198 157 128 161 120 132 125 112 128 135 176 125 119 136 211 193 206 198 222 223
193 177 193 186 134 159 187 181 180 198 135 185 157 189 182 133 183 126 144 124 168 198 177 154 152 116 178 113 111 135 185 188 127 129 136 192 196 202 202 196 202 209 217
126 173 190 124 124 170 189 193 184 191 199 190 187 198 185 190 195 130 150 207 207 194 197 204 202 197 191 189 213 127 156 192 194 204 207 200 195 199 209 217 200 217 216
193 199 185 210 179 195 200 189 184 193 182 154 184 195 194 193 187 180 183 187 118 144 188 191 180 130 200 162 172 148 182 143 205 201 199 195 205 206 196 219 218 213 205
266 217 217 205 202 193 152 125 182 198 199 153 130 172 202 205 129 190 151 189 158 127 206 210 198 191 140 157 192 204 205 198 203 194 211 206 205 216 217 207 206 202 214
244 227 236 226 214 141 123 123 126 211 226 216 207 205 123 188 207 143 127 127 129 173 190 194 196 192 189 188 205 198 202 205 200 206 201 226 212 207 215 206 211 221 223
219 222 215 216 213 217 230 223 201 193 209 198 190 126 184 127 184 198 194 202 202 199 189 188 189 213 205 202 203 202 203 210 205 226 211 215 216 208 220 234 233 217 212
176 111 118 125 190 192 212 222 223 211 211 206 127 133 167 208 194 186 192 193 193 193 198 205 213 202 201 202 210 212 210 223 215 210 208 201 199 210 216 211 209 211 211